Content
SEND FEEDBACK

Daily
Averages
Monthly
Summary
United States of America

ST. LOUIS, MISSOURI


Home > North America > United States > Missouri
Elevation: 535 feet     Latitude: 38 45N     Longitude: 090 22W

WEATHER
 
SELECT A DAY
Number of Records: 200,566;   Date Range: 1/1/95 - 11/24/14
 
SHARE

PRINT THIS DATA

[ ← Previous Day ]
WEATHER ALMANAC - JANUARY 12, 2014
[ Next Day → ]
[ °C ]   °F
Weather ElementAverageHighLow
Temperature44.8 °F61 °F (2:54 pm)24.1 °F (5:54 am)
Dewpoint27.9 °F33.1 °F (8:54 pm)21.9 °F (5:54 am)
Humidity57.2 %92 % (2:54 am)27 % (2:54 pm)
Barometer29.81 in29.96 in (6:54 am)29.66 in (3:54 pm)
Wind Speed7.8 mph17.3 mph (1:54 pm)
Wind Gust29.9 mph (11:54 am)
Weather ElementAverage
Visibility10 mi
Wind DirectionESE (122.2 °)

Weather ElementTotal
Precipitation---
Heating Degree Days22.5 (Base 65)
Averaged from 23 records on January 12, 2014
WEATHER CONDITIONS BREAKOUT
WIND DIRECTION BREAKOUT
WEATHER BY HOUR - JANUARY 12, 2014
[ °C ]   °F
Local TimeTemperatureDewpointHumidityBarometerVisibilityWind DirectionWind SpeedGust SpeedPrecipitationEventsConditions
1:54 AM28.0 °F25.0 °F88 %29.95 in10.0 miWest (270°)3.5 mphClear
2:54 AM27.0 °F25.0 °F92 %29.95 in10.0 miCalmClear
3:54 AM25.0 °F23.0 °F92 %29.95 in10.0 miCalmClear
4:54 AM27.0 °F24.1 °F89 %29.95 in10.0 miCalmClear
5:54 AM24.1 °F21.9 °F91 %29.95 in9.0 miCalmClear
6:54 AM24.1 °F21.9 °F91 %29.96 in10.0 miCalmClear
7:54 AM27.0 °F25.0 °F92 %29.94 in10.0 miCalmClear
8:54 AM39.9 °F28.9 °F65 %29.94 in10.0 miSouth (190°)11.5 mphClear
9:54 AM43.0 °F28.0 °F56 %29.92 in10.0 miSSE (160°)8.1 mph17.3 mphScattered Clouds
10:54 AM48.0 °F28.9 °F48 %29.88 in10.0 miSouth (170°)11.5 mph19.6 mphClear
11:54 AM53.1 °F28.9 °F40 %29.81 in10.0 miSSE (160°)15.0 mph29.9 mphScattered Clouds
12:54 PM57.0 °F27.0 °F32 %29.75 in10.0 miSouth (180°)10.4 mph23.0 mphClear
1:54 PM59.0 °F27.0 °F29 %29.72 in10.0 miSouth (170°)17.3 mph25.3 mphClear
2:54 PM61.0 °F27.0 °F27 %29.69 in10.0 miSouth (170°)12.7 mph23.0 mphClear
3:54 PM61.0 °F28.0 °F29 %29.66 in10.0 miSouth (180°)15.0 mph28.8 mphClear
4:54 PM59.0 °F28.0 °F31 %29.66 in10.0 miSSE (160°)13.8 mph21.9 mphClear
5:54 PM55.0 °F30.0 °F38 %29.68 in10.0 miSouth (170°)12.7 mph20.7 mphClear
6:54 PM54.0 °F30.9 °F41 %29.70 in10.0 miSouth (180°)10.4 mph18.4 mphClear
7:54 PM53.1 °F32.0 °F45 %29.73 in10.0 miSouth (190°)6.9 mphClear
8:54 PM51.1 °F33.1 °F50 %29.72 in10.0 miVariable6.9 mphClear
9:54 PM53.1 °F33.1 °F47 %29.70 in10.0 miSouth (190°)11.5 mph17.3 mphClear
10:54 PM53.1 °F33.1 °F47 %29.68 in10.0 miSouth (170°)6.9 mphClear
11:54 PM46.9 °F32.0 °F56 %29.66 in10.0 miEast (100°)4.6 mphClear
Hourly data recorded from KSUS, located miles away from St. Louis, Missouri







STORIES FROM OUR PARTNERS